TimeCST,TemperatureF,Dew PointF,Humidity,Sea Level PressureIn,VisibilityMPH,Wind Direction,Wind SpeedMPH,Gust SpeedMPH,PrecipitationIn,Events,Conditions,WindDirDegrees,DateUTC
12:52 AM,10.0,1.9,70,29.98,10.0,West,3.5,-,N/A,,Clear,270,2013-02-05 06:52:00
1:52 AM,8.1,-0.0,70,29.97,10.0,Calm,Calm,-,N/A,,Clear,0,2013-02-05 07:52:00
2:52 AM,6.1,1.0,80,29.95,10.0,SW,3.5,-,N/A,,Clear,230,2013-02-05 08:52:00
3:52 AM,3.9,-0.9,80,29.94,10.0,WSW,3.5,-,N/A,,Clear,240,2013-02-05 09:52:00
4:52 AM,9.0,3.0,77,29.94,10.0,SW,3.5,-,N/A,,Mostly Cloudy,230,2013-02-05 10:52:00
5:52 AM,12.0,3.0,67,29.94,10.0,SW,5.8,-,N/A,,Overcast,220,2013-02-05 11:52:00
6:41 AM,15.8,8.6,73,29.87,3.0,SSW,8.1,-,0.00,Snow,Light Snow,200,2013-02-05 12:41:00
6:50 AM,15.8,10.4,79,29.86,1.8,SSW,5.8,-,0.00,Snow,Light Snow,200,2013-02-05 12:50:00
6:52 AM,16.0,10.0,77,29.93,1.5,SSW,6.9,-,0.00,Snow,Light Snow,200,2013-02-05 12:52:00
7:34 AM,17.6,12.2,79,29.84,2.0,South,10.4,-,0.00,Snow,Light Snow,190,2013-02-05 13:34:00
7:42 AM,17.6,12.2,79,29.83,4.0,South,10.4,-,0.00,,Overcast,180,2013-02-05 13:42:00
7:52 AM,17.1,14.0,88,29.89,4.0,South,10.4,-,0.00,,Overcast,170,2013-02-05 13:52:00
8:52 AM,19.9,16.0,85,29.88,6.0,South,10.4,-,N/A,,Overcast,190,2013-02-05 14:52:00
9:52 AM,23.0,18.0,81,29.84,6.0,South,13.8,-,N/A,,Haze,190,2013-02-05 15:52:00
10:33 AM,24.8,19.4,80,29.80,7.0,SW,18.4,23.0,N/A,,Overcast,220,2013-02-05 16:33:00
10:52 AM,26.1,19.0,75,29.85,8.0,SW,13.8,-,N/A,,Overcast,220,2013-02-05 16:52:00
11:52 AM,27.0,19.9,75,29.84,7.0,WSW,11.5,21.9,N/A,,Overcast,240,2013-02-05 17:52:00
12:28 PM,26.6,19.4,74,29.77,2.0,WSW,10.4,18.4,0.00,Snow,Light Snow,250,2013-02-05 18:28:00
12:48 PM,26.6,21.2,80,29.78,0.5,WSW,8.1,-,0.00,Fog-Snow,Snow,250,2013-02-05 18:48:00
12:52 PM,26.1,21.9,84,29.84,0.5,Variable,5.8,-,0.00,Fog-Snow,Snow,0,2013-02-05 18:52:00
1:16 PM,26.6,23.0,86,29.78,0.2,WSW,3.5,-,0.00,Fog-Snow,Snow,240,2013-02-05 19:16:00
1:39 PM,26.6,23.0,86,29.78,0.5,SW,6.9,-,0.00,Fog-Snow,Light Snow,230,2013-02-05 19:39:00
1:50 PM,26.6,23.0,86,29.78,1.0,WSW,6.9,-,0.00,Snow,Light Snow,240,2013-02-05 19:50:00
1:52 PM,26.1,23.0,88,29.84,1.0,Variable,3.5,-,0.00,Snow,Light Snow,0,2013-02-05 19:52:00
2:25 PM,28.4,23.0,80,29.79,2.5,West,8.1,-,0.00,Snow,Light Snow,260,2013-02-05 20:25:00
2:44 PM,28.4,23.0,80,29.80,1.2,West,8.1,-,0.00,Snow,Light Snow,260,2013-02-05 20:44:00
2:52 PM,28.0,23.0,81,29.87,2.5,West,6.9,17.3,0.00,Snow,Light Snow,260,2013-02-05 20:52:00
3:08 PM,28.4,23.0,80,29.82,3.0,West,6.9,-,0.00,,Haze,270,2013-02-05 21:08:00
3:52 PM,28.0,23.0,81,29.89,4.0,West,6.9,-,0.00,,Haze,280,2013-02-05 21:52:00
4:16 PM,28.4,23.0,80,29.84,1.8,WNW,9.2,-,0.00,Snow,Light Snow,290,2013-02-05 22:16:00
4:50 PM,26.6,23.0,86,29.86,3.0,WNW,6.9,-,0.00,,Overcast,290,2013-02-05 22:50:00
4:51 PM,27.0,23.0,85,29.93,3.0,WNW,8.1,-,0.00,,Overcast,290,2013-02-05 22:51:00
5:52 PM,27.0,21.9,81,29.95,5.0,West,8.1,-,N/A,,Haze,270,2013-02-05 23:52:00
6:52 PM,28.0,21.9,78,29.99,6.0,WNW,5.8,-,N/A,,Haze,300,2013-02-06 00:52:00
7:52 PM,28.0,21.0,75,30.01,7.0,WNW,6.9,-,N/A,,Overcast,300,2013-02-06 01:52:00
8:52 PM,28.9,21.0,72,30.04,7.0,NW,8.1,-,N/A,,Overcast,310,2013-02-06 02:52:00
9:52 PM,28.0,19.9,72,30.06,9.0,NNW,5.8,-,N/A,,Overcast,330,2013-02-06 03:52:00
10:52 PM,26.1,18.0,71,30.09,9.0,NNW,10.4,-,N/A,,Overcast,330,2013-02-06 04:52:00
11:52 PM,25.0,17.1,72,30.12,10.0,NW,5.8,-,N/A,,Overcast,320,2013-02-06 05:52:00